Погода в Красноармейском

Россия / Республика Мордовия     54°04′27″N   43°26′48″E
темп.,
°C
ветер,
м/с
пор.,
м/с
влажн.,
%
обл.,
%
осадки,
мм/ч
давл.,
гПа
погр.,
м
17 мая, пн
пн1700:00+16в228397 0.0 101425
03:00+16в338773 0.0 101533
06:00+17вюв34836 0.0 101483
09:00+22ююв456412 0.0 1015353
12:00+27ю474896 0.0 1015769
15:00+28юв4847100 0.0 10151803
18:00+24юв4866100 0.0 1014169
21:00+19вюв465899 0.0 101578
18 мая, вт
вт1800:00+17вюв4117498 0.0 1015165
03:00+15вюв497254 0.0 1014125
06:00+16вюв4117452 0.0 1014186
09:00+22вюв613565 0.0 1014494
12:00+26юв610475 0.0 1013837
15:00+27вюв610505 0.0 10121145
18:00+24вюв511645 0.0 1012351
21:00+19вюв516663 0.0 1012279
19 мая, ср
ср1900:00+18вюв514604 0.0 1012261
03:00+17вюв514573 0.0 1012287
06:00+17вюв5166871 0.0 1012358
09:00+22вюв716597 0.0 1012604
12:00+26вюв813561 0.0 10111330
15:00+27вюв7125126 0.0 10111934
18:00+24вюв614625 0.0 1010479
21:00+21вюв819630 0.0 1011589
20 мая, чт
чт2000:00+19юв71858100 0.0 1010511
03:00+17вюв7157168 0.1 1010570
06:00+17вюв61382100 0.0 1010626
09:00+19юв8127460 0.0 10101139
12:00+19ю7974100 0.9 10101149
15:00+15ююв51088100 3.1 1010651
18:00+15вюв5890100 3.5 1009291
21:00+13юв499696 3.7 1010234
21 мая, пт
пт2100:00+12ю389499 0.0 1011207
03:00+11ю38960 0.0 1011202
06:00+12ююз489313 0.0 1012288
09:00+16ююз587279 0.0 1013668
12:00+14ююз71186100 1.3 1014628
15:00+16ююз712785 1.5 1013961
18:00+17ююз6128129 1.5 1013906
21:00+14ююз4119172 1.9 1013289